Home > Weather > Neu-Ulm > Past weeks

Flag for Germany Past Weather in Neu-Ulm, Bavaria, Germany — Yesterday and Last 2 Weeks

Now
64 °F

Mild.


Feels Like: 64 °F
Forecast: 58 / 74 °F
Wind: 5 mph from Southwest

Location: Laupheim Airport

Current Time: Aug 28, 2016 at 2:33:04 AM

Latest Report: Aug 28, 2016 at 1:20 AM


Visibility: 4 mi

Pressure: 30.09 "Hg

Humidity: 88%

Dew Point: 61 °F

Location of Neu-UlmLocation

Past Weather in Neu-Ulm — Graph

°F

Neu-Ulm Temperature Yesterday

Maximum temperature yesterday: 86 °F (at 3:20 PM)
Minimum temperature yesterday: 61 °F (at 5:20 AM)
Average temperature yesterday: 73 °F

High & Low Weather Summary for the Past Weeks

 TemperatureHumidityPressure
High88 °F (Aug 26, 4:20 PM)100% (Aug 13, 5:20 AM)30.42 "Hg (Aug 13, 5:20 AM)
Low50 °F (Aug 13, 5:20 AM)40% (Aug 26, 5:20 PM)29.86 "Hg (Aug 18, 4:20 AM)
Average66 °F73%30.13 "Hg
* Reported Aug 13 12:20 AM — Aug 28 12:20 AM, Neu-Ulm, Weather by CustomWeather, © 2016

Note: Actual official high and low records may vary slightly from our data, if they occured in-between our weather recording intervals... More about our weather records

Advertising

Neu-Ulm Weather History for the Previous 24 Hours

Scroll right to see more
 ConditionsComfort  
Time TempWeatherWind HumidityBarometerVisibility
12:20 AM
Sun, Aug 28
66 °FMild.2 mph83%30.09 "Hg4 mi
11:20 PM
Sat, Aug 27
68 °FMild.2 mph83%30.09 "Hg2 mi
10:20 PM70 °FMild.1 mph73%30.09 "Hg2 mi
9:20 PM73 °FMild.2 mph65%30.09 "Hg4 mi
8:20 PM77 °FWarm.3 mph57%30.07 "Hg2 mi
7:20 PM82 °FWarm.5 mph48%30.07 "Hg5 mi
6:20 PM84 °FWarm.7 mph43%30.07 "Hg5 mi
5:20 PM86 °FWarm.5 mph43%30.09 "Hg5 mi
4:20 PM86 °FWarm.7 mph40%30.09 "HgN/A
3:20 PM86 °FWarm.6 mph40%30.09 "Hg6 mi
2:20 PM84 °FWarm.7 mph43%30.12 "HgN/A
1:20 PM84 °FWarm.7 mph43%30.12 "Hg6 mi
12:20 PM82 °FWarm.5 mph45%30.12 "HgN/A
11:20 AM79 °FWarm.3 mph65%30.15 "Hg4 mi
10:20 AM73 °FMild.2 mph74%30.15 "Hg4 mi
9:20 AM70 °FMild.1 mph78%30.15 "Hg3 mi
8:20 AM64 °FMild.2 mph88%30.12 "Hg3 mi
7:20 AM61 °FCool.No wind94%30.12 "Hg3 mi
6:20 AM61 °FCool.1 mph94%30.12 "Hg0 mi
5:20 AM61 °FCool.No wind94%30.12 "Hg0 mi
4:20 AM63 °FMild.1 mph94%30.12 "Hg2 mi
3:20 AM63 °FMild.1 mph94%30.12 "Hg2 mi
2:20 AM66 °FMild.1 mph88%30.12 "Hg4 mi
Weather by CustomWeather, © 2016

See weather overviewHow to use our weather pages